Date String (YYYY-MM-DD hh:mm:ss) UTC,Instrument flags,absolute air pressure of the measurement (hPa),sample flow rate (lpm),inlet stack bypass flow (lpm),air temperature of the measurement (°C),ambient temperature measured by the external sensor (°C),aerosol sample conditioner tube jacket temperature (°C),OPC LED temperature (°C),internal box temperature (°C),relative humidity of the measurement (%),span deviation,mass concentration of particles derived from Lorenz-Mie calculation of OPC scattering (μg/m³),mass concentration of particles derived from Lorenz-Mie calculation of OPC scattering (μg/m³),mass concentration of particles derived from Lorenz-Mie calculation of OPC scattering (μg/m³)
DateTimeUTC,F1_M11,P_M11,Q1_M11,Q2_M11,T1_M11,T2_M11,T3_M11,T4_M11,T5_M11,U1_M11,ZSPAN_M11,X0_M11,X2_M11,X1_M11
2023-09-13 15:00:00,SystemResetWarning,0831.3,5.00,000.00,025.7,024.8,000.0,034.0,027.5,28.9,0000.0,0010.23,0005.43,0004.78
2023-09-13 15:01:00,SystemResetWarning,0831.3,5.01,000.00,025.7,025.0,000.0,034.0,027.6,29.1,0000.4,0010.51,0005.43,0004.78
2023-09-13 15:02:00,SystemResetWarning,0831.3,4.99,000.00,025.8,025.1,000.0,034.1,027.7,28.6,0000.3,0010.06,0005.38,0004.78
2023-09-13 15:03:00,SystemResetWarning,0831.2,4.99,000.00,025.9,025.2,000.0,034.1,027.8,28.1,0000.2,0010.79,0005.31,0004.78
2023-09-13 15:04:00,SystemResetWarning,0831.2,4.99,000.00,026.0,025.3,000.0,034.1,027.8,28.3,-000.2,0011.13,0005.28,0004.77
2023-09-13 15:05:00,SystemResetWarning,0831.3,5.01,000.00,026.1,025.4,000.0,034.2,027.9,28.8,-000.3,0010.65,0005.28,0004.77
2023-09-13 15:06:00,SystemResetWarning,0831.2,5.00,000.00,026.1,025.5,000.0,034.2,028.0,29.3,-000.1,0010.68,0005.26,0004.78
2023-09-13 15:07:00,SystemResetWarning,0831.3,5.01,000.00,026.2,025.6,000.0,034.3,028.1,28.9,-000.0,0012.08,0005.29,0004.81
2023-09-13 15:08:00,SystemResetWarning,0831.3,4.99,000.00,026.3,025.7,000.0,034.3,028.2,28.0,0000.5,0012.47,0005.28,0004.82
2023-09-13 15:09:00,SystemResetWarning,0831.3,4.98,000.00,026.4,025.7,000.0,034.4,028.2,27.3,0000.6,0012.39,0005.29,0004.84
2023-09-13 15:10:00,SystemResetWarning,0831.3,5.01,000.00,026.4,025.8,000.0,034.4,028.3,26.7,0000.2,0012.41,0005.29,0004.86
2023-09-13 15:11:00,SystemResetWarning,0831.3,5.02,000.00,026.5,025.8,000.0,034.5,028.4,26.1,0000.2,0012.44,0005.33,0004.87
2023-09-13 15:12:00,SystemResetWarning,0831.3,5.00,000.00,026.5,025.9,000.0,034.5,028.4,26.3,0000.1,0012.24,0005.39,0004.89
2023-09-13 15:13:00,SystemResetWarning,0831.3,4.99,000.00,026.6,025.9,000.0,034.6,028.5,27.8,0000.9,0012.46,0005.46,0004.91
2023-09-13 15:14:00,SystemResetWarning,0831.3,4.99,000.00,026.6,025.9,000.0,034.6,028.5,27.9,0000.8,0011.78,0005.51,0004.93
2023-09-13 15:15:00,SystemResetWarning,0831.3,5.02,000.00,026.7,026.0,000.0,034.7,028.5,27.3,0001.0,0011.51,0005.50,0004.95
2023-09-13 15:16:00,SystemResetWarning,0831.3,5.00,000.00,026.7,026.0,000.0,034.7,028.6,26.5,0001.2,0011.67,0005.49,0004.95
2023-09-13 15:17:00,SystemResetWarning,0831.3,5.00,000.00,026.8,026.0,000.0,034.8,028.6,25.9,0001.2,0012.41,0005.54,0004.95
2023-09-13 15:18:00,SystemResetWarning,0831.3,4.99,000.00,026.8,026.1,000.0,034.8,028.7,26.2,0001.6,0011.82,0005.59,0004.95
2023-09-13 15:19:00,SystemResetWarning,0831.3,4.99,000.00,026.9,026.1,000.0,034.9,028.7,25.7,0001.4,0011.41,0005.61,0004.94
2023-09-13 15:20:00,SystemResetWarning,0831.3,5.00,000.00,026.9,026.1,000.0,034.9,028.7,24.7,0000.7,0011.55,0005.59,0004.92
2023-09-13 15:21:00,SystemResetWarning,0831.3,5.01,000.00,027.0,026.1,000.0,034.9,028.8,25.9,0000.3,0012.43,0005.63,0004.91
2023-09-13 15:22:00,SystemResetWarning,0831.3,5.00,000.00,027.0,026.1,000.0,035.0,028.8,26.2,0000.0,0012.90,0005.61,0004.90
2023-09-13 15:23:00,SystemResetWarning,0831.3,5.00,000.00,027.0,026.2,000.0,035.0,028.9,25.8,-000.2,0012.81,0005.58,0004.89
2023-09-13 15:24:00,SystemResetWarning,0831.3,5.00,000.00,027.1,026.2,000.0,035.1,028.9,26.0,-000.4,0013.05,0005.54,0004.87
2023-09-13 15:25:00,SystemResetWarning,0831.3,4.99,000.00,027.1,026.2,000.0,035.1,028.9,25.6,0000.3,0012.89,0005.53,0004.87
2023-09-13 15:26:00,SystemResetWarning,0831.3,5.00,000.00,027.1,026.2,000.0,035.2,028.9,25.5,0000.6,0012.68,0005.53,0004.88
2023-09-13 15:27:00,SystemResetWarning,0831.3,5.00,000.00,027.2,026.2,000.0,035.2,029.0,25.7,-000.0,0012.61,0005.54,0004.88
2023-09-13 15:28:00,SystemResetWarning,0831.3,5.00,000.00,027.2,026.2,000.0,035.2,029.0,26.2,-000.5,0012.17,0005.51,0004.88
2023-09-13 15:29:00,SystemResetWarning,0831.3,5.00,000.00,027.2,026.3,000.0,035.3,029.0,25.8,-000.9,0011.34,0005.48,0004.86
2023-09-13 15:30:00,SystemResetWarning,0831.3,4.99,000.00,027.3,026.3,000.0,035.3,029.1,24.9,-000.7,0011.51,0005.49,0004.86
2023-09-13 15:31:00,SystemResetWarning,0831.3,5.00,000.00,027.3,026.3,000.0,035.3,029.1,24.9,0000.2,0011.83,0005.50,0004.86
2023-09-13 15:32:00,SystemResetWarning,0831.3,5.00,000.00,027.3,026.3,000.0,035.4,029.1,25.2,0000.8,0011.66,0005.48,0004.85
2023-09-13 15:33:00,SystemResetWarning,0831.3,5.01,000.00,027.4,026.4,000.0,035.4,029.2,25.2,0001.2,0011.09,0005.45,0004.84
2023-09-13 15:34:00,SystemResetWarning,0831.3,5.01,000.00,027.4,026.4,000.0,035.5,029.2,24.9,0001.6,0011.42,0005.44,0004.83
2023-09-13 15:35:00,SystemResetWarning,0831.3,5.00,000.00,027.4,026.4,000.0,035.5,029.2,25.4,0001.0,0011.32,0005.43,0004.82
2023-09-13 15:36:00,SystemResetWarning,0831.3,4.99,000.00,027.5,026.5,000.0,035.5,029.2,25.6,0000.3,0011.43,0005.40,0004.79
2023-09-13 15:37:00,SystemResetWarning,0831.3,5.00,000.00,027.5,026.5,000.0,035.6,029.3,26.0,0000.4,0011.61,0005.40,0004.76
2023-09-13 15:38:00,SystemResetWarning,0831.3,5.00,000.00,027.5,026.5,000.0,035.6,029.3,24.9,0001.4,0011.61,0005.42,0004.75
2023-09-13 15:39:00,SystemResetWarning,0831.3,5.00,000.00,027.6,026.6,000.0,035.6,029.3,25.6,0001.8,0011.21,0005.40,0004.75
2023-09-13 15:40:00,SystemResetWarning,0831.3,5.01,000.00,027.6,026.6,000.0,035.7,029.4,25.7,0001.9,0011.24,0005.38,0004.74
2023-09-13 15:41:00,SystemResetWarning,0831.3,5.01,000.00,027.6,026.6,000.0,035.7,029.4,25.4,0001.1,0011.18,0005.36,0004.74
2023-09-13 15:42:00,SystemResetWarning,0831.3,4.99,000.00,027.6,026.6,000.0,035.7,029.4,25.2,0000.1,0010.78,0005.36,0004.74
2023-09-13 15:43:00,SystemResetWarning,0831.3,4.99,000.00,027.7,026.6,000.0,035.7,029.4,25.5,0000.0,0010.18,0005.40,0004.76
2023-09-13 15:44:00,SystemResetWarning,0831.3,4.99,000.00,027.7,026.7,000.0,035.8,029.5,25.0,0000.0,0010.30,0005.40,0004.76
2023-09-13 15:45:00,SystemResetWarning,0831.3,5.01,000.00,027.7,026.7,000.0,035.8,029.5,24.7,0000.0,0010.07,0005.40,0004.76
2023-09-13 15:46:00,SystemResetWarning,0831.3,5.02,000.00,027.7,026.7,000.0,035.8,029.5,24.8,0000.0,0010.90,0005.37,0004.75
2023-09-13 15:47:00,SystemResetWarning,0831.3,4.99,000.00,027.8,026.7,000.0,035.9,029.5,24.8,0000.0,0011.47,0005.39,0004.76
2023-09-13 15:48:00,SystemResetWarning,0831.3,5.00,000.00,027.8,026.8,000.0,035.9,029.6,24.8,0000.0,0012.10,0005.41,0004.79
2023-09-13 15:49:00,SystemResetWarning,0831.3,5.00,000.00,027.8,026.8,000.0,035.9,029.6,25.4,0000.0,0012.04,0005.41,0004.80
2023-09-13 15:50:00,SystemResetWarning,0831.3,5.00,000.00,027.8,026.8,000.0,036.0,029.6,24.9,0000.0,0012.56,0005.41,0004.81
2023-09-13 15:51:00,SystemResetWarning,0831.3,5.00,000.00,027.9,026.8,000.0,036.0,029.6,25.0,0000.0,0012.57,0005.43,0004.83
2023-09-13 15:52:00,SystemResetWarning,0831.3,5.00,000.00,027.9,026.9,000.0,036.0,029.6,24.3,0000.0,0012.50,0005.43,0004.84
2023-09-13 15:53:00,SystemResetWarning,0831.3,5.00,000.00,027.9,026.9,000.0,036.0,029.7,24.0,0000.0,0012.42,0005.40,0004.84
2023-09-13 15:54:00,SystemResetWarning,0831.3,5.00,000.00,028.0,026.9,000.0,036.1,029.7,23.6,0000.0,0012.65,0005.36,0004.84
2023-09-13 15:55:00,SystemResetWarning,0831.3,5.00,000.00,028.0,026.9,000.0,036.1,029.7,23.0,0000.7,0012.54,0005.41,0004.85
2023-09-13 15:56:00,SystemResetWarning,0831.3,5.00,000.00,028.0,026.9,000.0,036.1,029.7,23.2,0002.7,0012.39,0005.42,0004.86
2023-09-13 15:57:00,SystemResetWarning,0831.3,5.01,000.00,028.0,027.0,000.0,036.1,029.8,23.6,0002.1,0011.95,0005.45,0004.87
2023-09-13 15:58:00,SystemResetWarning,0831.3,5.00,000.00,028.1,027.0,000.0,036.2,029.8,23.8,0001.2,0010.96,0005.44,0004.89
2023-09-13 15:59:00,SystemResetWarning,0831.3,5.00,000.00,028.1,027.0,000.0,036.2,029.8,24.3,0000.2,0010.39,0005.43,0004.88
